Location: Castelbiague
(43.0361°N, 0.9246°E)
Time: 11:46:53
(UTC+00:00)

Meteor 1-4 Rocket - Pass Details

Date: 24 October 2021
Orbit: 446 x 496 km, 81.2° (Epoch: 29 November)

Event Time Altitude Azimuth Distance (km) Brightness Sun altitude
Rises 18:28:12 0° 192° (SSW) 2,468 6.3 -16.9°
Reaches altitude 10° 18:30:17 10° 194° (SSW) 1,592 5.3 -17.2°
Maximum altitude 18:33:45 75° 281° (W) 474 2.5 -17.9°
Drops below altitude 10° 18:37:13 10° 6° (N) 1,588 5.1 -18.5°
Sets 18:39:17 0° 9° (N) 2,462 6.1 -18.9°
